TimeCST,TemperatureF,Dew PointF,Humidity,Sea Level PressureIn,VisibilityMPH,Wind Direction,Wind SpeedMPH,Gust SpeedMPH,PrecipitationIn,Events,Conditions,WindDirDegrees,DateUTC
12:15 AM,35.1,29.7,81,30.07,10.0,WNW,9.2,-,N/A,,Clear,290,2013-01-09 06:15:00
12:35 AM,35.6,29.8,80,30.08,10.0,West,11.5,-,N/A,,Clear,280,2013-01-09 06:35:00
12:55 AM,34.3,29.3,82,30.10,10.0,West,11.5,-,N/A,,Clear,270,2013-01-09 06:55:00
1:15 AM,34.5,29.3,81,30.10,10.0,West,10.4,-,N/A,,Clear,270,2013-01-09 07:15:00
1:35 AM,33.8,29.1,83,30.11,10.0,West,10.4,-,N/A,,Clear,280,2013-01-09 07:35:00
1:55 AM,32.5,28.4,85,30.13,10.0,West,9.2,-,N/A,,Clear,280,2013-01-09 07:55:00
2:15 AM,32.2,28.6,87,30.15,10.0,West,11.5,-,N/A,,Clear,270,2013-01-09 08:15:00
2:35 AM,32.0,28.4,87,30.16,10.0,West,9.2,-,N/A,,Clear,270,2013-01-09 08:35:00
2:55 AM,32.0,28.4,87,30.16,10.0,West,9.2,-,N/A,,Clear,270,2013-01-09 08:55:00
3:15 AM,33.6,29.3,84,30.17,10.0,WSW,11.5,-,N/A,,Clear,250,2013-01-09 09:15:00
3:35 AM,32.0,27.9,85,30.18,10.0,SW,8.1,-,N/A,,Clear,230,2013-01-09 09:35:00
3:55 AM,31.1,27.7,87,30.19,10.0,WSW,10.4,-,N/A,,Clear,250,2013-01-09 09:55:00
4:15 AM,32.5,28.8,86,30.19,10.0,WSW,11.5,-,N/A,,Clear,250,2013-01-09 10:15:00
4:35 AM,32.0,28.2,86,30.20,10.0,WSW,10.4,-,N/A,,Clear,240,2013-01-09 10:35:00
4:55 AM,31.1,27.3,86,30.22,10.0,WSW,5.8,-,N/A,,Clear,250,2013-01-09 10:55:00
5:15 AM,31.8,28.2,87,30.22,10.0,West,10.4,-,N/A,,Clear,260,2013-01-09 11:15:00
5:35 AM,32.4,28.4,85,30.23,10.0,West,11.5,-,N/A,,Clear,280,2013-01-09 11:35:00
5:55 AM,32.0,28.2,86,30.24,10.0,West,12.7,-,N/A,,Clear,280,2013-01-09 11:55:00
6:15 AM,31.5,27.5,85,30.24,10.0,West,10.4,-,N/A,,Clear,270,2013-01-09 12:15:00
6:35 AM,30.2,26.6,86,30.24,10.0,WNW,8.1,-,N/A,,Clear,290,2013-01-09 12:35:00
7:15 AM,28.9,26.1,89,30.25,10.0,WSW,8.1,-,N/A,,Clear,250,2013-01-09 13:15:00
7:35 AM,29.8,26.8,88,30.28,10.0,SW,9.2,-,N/A,,Clear,230,2013-01-09 13:35:00
7:55 AM,31.5,28.0,87,30.30,10.0,SW,10.4,-,N/A,,Clear,220,2013-01-09 13:55:00
8:15 AM,32.4,29.1,88,30.30,10.0,SW,8.1,-,N/A,,Clear,230,2013-01-09 14:15:00
8:35 AM,34.3,30.7,87,30.31,10.0,WSW,8.1,-,N/A,,Clear,250,2013-01-09 14:35:00
8:55 AM,37.2,32.0,81,30.32,10.0,West,11.5,-,N/A,,Clear,270,2013-01-09 14:55:00
9:15 AM,39.2,32.2,76,30.35,10.0,West,10.4,-,N/A,,Clear,270,2013-01-09 15:15:00
9:35 AM,40.6,32.4,72,30.37,10.0,WSW,13.8,-,N/A,,Clear,250,2013-01-09 15:35:00
9:55 AM,41.4,32.5,71,30.40,10.0,West,10.4,-,N/A,,Clear,260,2013-01-09 15:55:00
10:15 AM,42.6,32.2,67,30.42,10.0,West,12.7,-,N/A,,Clear,280,2013-01-09 16:15:00
10:35 AM,44.2,32.2,63,30.42,10.0,West,16.1,-,N/A,,Clear,280,2013-01-09 16:35:00
10:55 AM,45.3,31.8,59,30.42,10.0,West,15.0,-,N/A,,Clear,280,2013-01-09 16:55:00
11:15 AM,45.5,31.8,59,30.41,10.0,WNW,16.1,-,N/A,,Clear,290,2013-01-09 17:15:00
11:55 AM,46.8,32.0,57,30.41,10.0,WNW,15.0,-,N/A,,Clear,290,2013-01-09 17:55:00
12:15 PM,46.8,31.8,56,30.41,10.0,WNW,16.1,20.7,N/A,,Clear,300,2013-01-09 18:15:00
12:35 PM,47.5,32.0,55,30.41,10.0,WNW,17.3,-,N/A,,Clear,300,2013-01-09 18:35:00
12:55 PM,48.9,33.3,55,30.40,10.0,WNW,17.3,21.9,N/A,,Clear,300,2013-01-09 18:55:00
1:15 PM,48.4,32.2,54,30.40,10.0,WNW,17.3,-,N/A,,Clear,290,2013-01-09 19:15:00
1:35 PM,49.3,32.0,51,30.40,10.0,NW,15.0,-,N/A,,Clear,310,2013-01-09 19:35:00
1:55 PM,49.6,31.5,50,30.40,10.0,WNW,13.8,18.4,N/A,,Clear,300,2013-01-09 19:55:00
2:15 PM,50.0,32.2,50,30.39,10.0,NNW,9.2,-,N/A,,Clear,330,2013-01-09 20:15:00
2:35 PM,49.6,30.2,47,30.39,10.0,NNW,10.4,-,N/A,,Clear,330,2013-01-09 20:35:00
2:55 PM,49.1,28.8,45,30.40,10.0,NW,9.2,-,N/A,,Clear,320,2013-01-09 20:55:00
3:15 PM,48.9,30.7,50,30.39,10.0,North,6.9,-,N/A,,Clear,350,2013-01-09 21:15:00
3:35 PM,48.2,29.8,49,30.40,10.0,North,6.9,-,N/A,,Clear,360,2013-01-09 21:35:00
3:55 PM,47.1,31.1,54,30.40,10.0,North,3.5,-,N/A,,Clear,360,2013-01-09 21:55:00
4:15 PM,45.5,31.1,57,30.40,10.0,Calm,Calm,-,N/A,,Clear,0,2013-01-09 22:15:00
4:35 PM,44.6,31.1,59,30.40,10.0,Calm,Calm,-,N/A,,Clear,0,2013-01-09 22:35:00
4:55 PM,42.1,30.6,64,30.41,10.0,Calm,Calm,-,N/A,,Clear,0,2013-01-09 22:55:00
5:15 PM,41.0,30.6,66,30.42,10.0,Calm,Calm,-,N/A,,Clear,0,2013-01-09 23:15:00
5:35 PM,39.9,30.0,68,30.42,10.0,Calm,Calm,-,N/A,,Clear,0,2013-01-09 23:35:00
5:55 PM,38.7,29.8,71,30.42,10.0,Calm,Calm,-,N/A,,Clear,0,2013-01-09 23:55:00
6:15 PM,35.6,27.7,73,30.41,10.0,East,5.8,-,N/A,,Clear,90,2013-01-10 00:15:00
6:35 PM,37.4,28.0,69,30.42,10.0,ESE,5.8,-,N/A,,Clear,110,2013-01-10 00:35:00
6:55 PM,35.6,27.3,72,30.42,7.0,East,5.8,-,N/A,,Clear,100,2013-01-10 00:55:00
7:15 PM,34.5,27.0,74,30.43,10.0,East,5.8,-,N/A,,Clear,100,2013-01-10 01:15:00
7:55 PM,32.7,25.5,75,30.44,10.0,ESE,5.8,-,N/A,,Clear,120,2013-01-10 01:55:00
8:15 PM,34.7,26.4,72,30.43,10.0,SE,8.1,-,N/A,,Clear,130,2013-01-10 02:15:00
8:35 PM,35.2,25.7,68,30.43,10.0,ESE,8.1,-,N/A,,Clear,120,2013-01-10 02:35:00
8:55 PM,32.0,25.0,75,30.42,10.0,ESE,8.1,-,N/A,,Clear,110,2013-01-10 02:55:00
9:15 PM,33.3,25.7,74,30.43,10.0,ESE,8.1,-,N/A,,Clear,110,2013-01-10 03:15:00
9:35 PM,34.5,26.4,72,30.43,10.0,ESE,8.1,-,N/A,,Clear,120,2013-01-10 03:35:00
9:55 PM,31.1,25.0,78,30.44,10.0,SE,9.2,-,N/A,,Clear,140,2013-01-10 03:55:00
10:15 PM,32.0,26.4,80,30.44,10.0,ESE,9.2,-,N/A,,Clear,120,2013-01-10 04:15:00
10:35 PM,32.5,26.8,79,30.44,10.0,SE,9.2,-,N/A,,Clear,130,2013-01-10 04:35:00
10:55 PM,32.9,27.3,80,30.44,10.0,ESE,10.4,-,N/A,,Clear,120,2013-01-10 04:55:00
11:15 PM,33.1,27.7,81,30.43,10.0,SE,10.4,-,N/A,,Clear,130,2013-01-10 05:15:00
11:35 PM,32.9,27.5,81,30.43,10.0,SE,8.1,-,N/A,,Clear,130,2013-01-10 05:35:00
11:55 PM,32.4,27.5,82,30.42,10.0,SE,9.2,-,N/A,,Clear,130,2013-01-10 05:55:00